{"data":{"norad_id":52853,"intl_designator":"2022-062Z","name":"STARLINK-4189","alt_names":[],"object_type":"PAYLOAD","status":"ACTIVE","operator":null,"country":"US","launch_date":"2022-06-17","launch_site_code":"AFETR","launch_vehicle":null,"mission":null,"orbit_class":"UNKNOWN","rcs_meters":null,"size_class":null,"mass_kg":null,"dimensions":null,"purposes":["comms"],"wikipedia_slug":null,"has_3d_model":false,"image_url":null,"decayed_at":null,"tle_current":{"epoch":"2026-05-25T03:01:06.216960Z","epoch_age_seconds":57339,"freshness":"FRESH","line1":"1 52853U 22062Z   26145.12576640  .00141033  00000+0  82514-2 0  9997","line2":"2 52853  53.2183  40.8675 0001643  89.6907 270.4274 15.10788286217462","mean_motion":15.10788286,"eccentricity":0.0001643,"inclination_deg":53.2183,"raan_deg":40.8675,"arg_perigee_deg":89.6907,"mean_anomaly_deg":270.4274,"bstar":0.0082514,"rev_number":21746,"period_min":95.314480085928,"perigee_km":532.65902832509,"apogee_km":534.93028906813,"semimajor_km":6911.9316586966,"source":"CELESTRAK","updated_at":"2026-05-25T13:38:17.245468Z"}}}